Temp
49 45 43 47 49 48 46 43 43 46 53 49 47 48 53 51 48 47 47 47 47 48 47 46 47 46 45 45 46 47 48 51 52 51 49 49 46 46 46 47 47 45 45 45
45 42 51 51 50 49 46 43 42 47 51 49 47 46 50 49 50 53 53 51 50 45 44 45 44 44 44 45 46 46 48 51 53 53 49 48 46 45 45 45 43 42 43 42
44 50 53 52 47 46 45 42 41 46 45 45 41 40 46 52 51 52 55 57 54 49 46 44 44 44 44 44 44 47 48 51 51 50 48 45 45 45 43 41 39 39 41 40
45 52 51 47 47 49 41 49 48 46 41 36 41 34 42 47 49 50 55 53 53 49 47 46 45 43 44 44 45 47 48 48 50 50 47 46 42 40 38 37 37 37 38 38
46 47 47 46 48 51 46 49 46 43 38 34 36 33 39 44 45 50 57 53 51 48 47 45 46 47 45 44 44 45 47 49 49 49 48 45 40 39 37 36 35 34 35 36
47 49 51 51 49 52 50 46 42 38 37 29 39 37 36 44 51 52 56 56 50 47 46 47 46 45 42 41 41 47 48 47 47 47 45 44 39 37 36 34 34 32 33 33
43 45 48 50 47 47 47 43 30 28 26 30 36 33 45 48 51 55 58 53 46 46 45 43 41 42 42 40 40 43 47 44 44 44 41 40 40 39 37 36 35 33 33 31
40 36 46 49 50 45 42 42 32 25 24 28 33 30 40 48 54 49 48 48 43 42 44 43 43 43 42 41 40 42 44 43 40 40 39 39 39 39 38 37 35 34 33 33
39 40 44 46 49 54 42 38 47 35 18 23 33 38 45 46 47 47 47 43 40 41 42 42 42 42 41 40 40 41 40 40 40 40 39 38 39 37 36 34 33 33 32 34
47 36 40 41 47 44 44 47 35 31 22 20 29 31 39 40 45 49 48 41 40 40 39 40 40 40 41 41 40 40 41 40 40 39 40 39 39 37 36 35 33 33 31 32
49 43 34 40 39 40 39 38 38 39 32 26 22 34 42 49 48 48 48 44 41 40 40 40 40 40 40 39 38 38 38 37 37 39 39 37 35 36 36 35 33 32 32 31
48 44 29 36 40 40 38 39 38 31 29 29 28 39 47 46 47 47 48 45 42 43 41 41 40 38 37 37 38 38 38 38 38 38 37 37 36 35 33 33 32 31 31 31
48 40 28 31 36 37 37 41 47 40 32 31 30 39 42 42 44 46 46 43 41 41 40 39 38 37 37 38 38 38 38 38 36 36 36 34 33 33 33 32 31 31 30 30
52 41 38 36 37 41 34 37 40 44 37 37 39 45 41 45 45 47 44 41 40 41 41 40 39 39 40 39 38 38 38 38 36 36 35 34 33 34 33 32 31 31 31 30
49 38 39 46 43 43 40 38 41 40 44 39 46 43 51 51 48 49 47 42 40 40 40 40 40 40 40 39 39 40 39 38 37 36 34 34 33 33 32 31 31 30 30 31
45 39 42 39 44 40 37 39 42 43 44 45 46 46 51 51 47 44 46 42 41 41 42 42 42 41 40 40 40 40 39 37 37 36 34 34 33 32 31 31 30 30 29 28
44 39 36 33 40 35 31 39 40 42 46 44 39 48 47 50 50 47 45 44 44 44 45 43 43 42 42 42 42 40 39 38 35 34 33 32 33 32 32 31 30 29 28 28
35 38 38 34 35 27 40 48 49 45 45 46 46 48 42 48 52 51 46 44 45 47 45 44 44 44 43 43 42 41 37 35 35 34 33 32 32 32 30 29 29 29 28 27
44 38 33 31 32 37 39 35 39 39 42 50 48 50 51 51 38 46 45 48 50 47 46 46 45 46 44 41 40 38 35 35 35 33 33 33 33 31 29 29 29 29 27 25
41 42 34 31 29 28 36 36 40 42 37 46 47 48 48 43 37 48 48 41 42 43 41 40 40 40 41 40 39 36 34 34 34 34 34 34 33 32 30 31 30 28 27 27
33 35 32 32 31 33 32 31 38 34 37 27 31 35 36 39 46 39 38 37 37 37 37 37 41 41 40 39 37 35 34 33 36 35 33 31 32 32 32 31 28 24 24 22
32 32 33 33 31 29 36 34 37 37 32 32 32 35 36 36 34 33 33 34 35 35 34 35 35 33 34 35 36 34 33 33 30 30 30 30 30 31 30 28 20 20 20 19
29 34 32 33 33 36 35 37 37 36 35 37 36 35 34 33 32 32 32 32 33 33 33 33 34 32 30 30 32 30 28 27 27 28 27 26 25 24 24 22 18 15 17 19
30 33 33 33 33 34 33 35 35 36 36 36 36 35 35 34 32 30 31 31 31 27 28 27 30 27 24 21 25 25 25 24 26 24 21 19 21 17 17 19 19 19 18 18
32 33 31 30 32 31 34 33 36 35 35 35 34 34 35 34 32 31 28 27 27 26 24 26 28 27 23 22 21 19 21 22 21 18 16 16 16 16 14 13 14 15 10 16
31 31 31 31 36 37 36 36 35 35 36 36 36 33 31 33 32 30 28 27 27 26 22 24 21 23 19 20 18 17 17 21 20 17 16 15 16 12 12 12 8 22 22 25
MSLP
1017.82 1018.46 1018.58 1018.28 1018.46 1018.46 1018.78 1018.98 1018.77 1018.22 1017.79 1018.35 1018.39 1018.31 1017.96 1018.56 1019.32 1019.50 1019.81 1019.94 1020.23 1020.42 1020.87 1021.67 1022.09 1022.44 1022.80 1023.02 1023.19 1023.24 1023.35 1023.52 1023.53 1024.03 1024.81 1025.50 1026.10 1026.56 1026.70 1026.78 1026.73 1027.00 1027.20 1027.34
1018.79 1018.34 1017.69 1018.21 1018.53 1018.71 1018.84 1019.04 1018.82 1018.37 1017.88 1018.42 1018.19 1018.18 1017.77 1017.95 1017.85 1017.72 1017.86 1018.26 1018.56 1019.72 1020.46 1021.15 1021.68 1022.02 1022.35 1022.64 1022.89 1023.11 1023.27 1023.51 1023.71 1023.79 1024.46 1025.25 1026.20 1027.03 1027.30 1027.35 1027.48 1027.53 1027.56 1027.66
1018.05 1017.40 1017.15 1018.03 1018.52 1018.92 1018.76 1018.80 1018.75 1018.70 1018.37 1018.42 1018.56 1018.17 1017.49 1016.50 1016.42 1016.23 1016.24 1016.19 1016.95 1017.76 1019.05 1020.33 1021.10 1021.46 1021.90 1022.22 1022.53 1022.79 1023.07 1023.32 1023.67 1024.07 1024.62 1025.65 1026.58 1027.22 1027.74 1028.04 1028.26 1028.35 1028.20 1028.21
1017.76 1017.03 1017.35 1017.82 1018.12 1018.44 1018.49 1018.05 1018.44 1018.86 1019.26 1019.24 1018.93 1017.45 1016.74 1016.08 1015.64 1015.30 1014.66 1015.19 1015.42 1016.67 1018.22 1019.40 1020.21 1020.87 1021.20 1021.61 1022.04 1022.48 1022.86 1023.20 1023.68 1024.07 1024.64 1024.97 1025.77 1026.96 1027.99 1028.39 1028.76 1028.91 1028.95 1028.92
1016.33 1016.53 1017.01 1017.21 1017.10 1017.61 1017.74 1017.87 1018.50 1018.97 1019.58 1019.81 1019.50 1019.15 1015.74 1015.35 1015.11 1014.45 1013.33 1013.63 1014.50 1015.47 1016.49 1017.72 1018.56 1019.38 1020.42 1021.14 1021.63 1022.10 1022.65 1023.12 1023.64 1024.13 1024.56 1025.08 1026.07 1026.85 1028.01 1028.76 1029.09 1029.39 1029.53 1029.62
1016.05 1015.86 1015.97 1015.91 1016.49 1016.83 1017.54 1018.31 1019.33 1020.11 1020.55 1020.36 1019.17 1018.79 1015.31 1014.80 1013.51 1013.08 1012.29 1012.59 1013.44 1014.53 1015.67 1016.83 1018.07 1019.15 1020.19 1020.97 1021.60 1021.82 1022.36 1022.98 1023.58 1024.16 1024.72 1025.11 1025.76 1026.98 1028.08 1028.83 1029.25 1029.71 1030.10 1030.32
1016.21 1015.89 1015.66 1015.74 1016.59 1017.21 1017.63 1018.87 1020.33 1021.15 1021.43 1019.56 1018.39 1017.94 1014.17 1013.18 1012.37 1011.90 1011.83 1012.09 1012.94 1014.04 1015.41 1016.57 1017.72 1018.78 1019.77 1020.40 1021.01 1021.52 1021.91 1022.68 1023.42 1024.12 1024.76 1025.31 1025.76 1026.46 1027.33 1028.19 1028.86 1029.59 1030.16 1030.51
1015.76 1015.79 1015.19 1015.08 1015.01 1016.12 1017.29 1017.80 1019.11 1020.14 1021.00 1019.81 1018.83 1016.42 1013.18 1011.91 1011.23 1011.48 1011.82 1012.21 1013.23 1014.55 1015.51 1016.42 1017.19 1018.10 1019.12 1019.96 1020.60 1021.11 1021.66 1022.42 1023.26 1024.02 1024.72 1025.34 1025.89 1026.53 1027.34 1027.96 1028.68 1029.29 1029.74 1030.20
1014.86 1014.77 1014.22 1014.49 1014.78 1015.20 1017.07 1017.39 1017.69 1019.29 1020.95 1020.41 1017.40 1014.80 1012.85 1011.81 1011.67 1011.47 1011.54 1012.48 1013.76 1014.63 1015.41 1016.13 1017.04 1017.80 1018.68 1019.47 1020.07 1020.56 1021.26 1022.07 1022.92 1023.67 1024.47 1025.17 1025.78 1026.41 1027.16 1028.04 1028.73 1029.23 1029.87 1030.32
1013.71 1014.53 1014.76 1014.92 1015.02 1015.46 1015.50 1016.27 1018.04 1019.35 1020.43 1019.53 1016.51 1014.74 1012.48 1011.69 1011.48 1011.19 1011.62 1012.56 1013.55 1014.54 1015.48 1016.24 1016.89 1017.62 1018.38 1019.09 1019.88 1020.62 1021.11 1021.71 1022.56 1023.40 1024.09 1024.85 1025.54 1026.19 1026.88 1027.60 1028.38 1029.03 1029.72 1030.20
1013.37 1013.96 1015.27 1015.29 1014.88 1014.76 1015.77 1015.91 1016.68 1017.40 1018.09 1017.86 1016.21 1012.42 1010.45 1010.22 1010.32 1010.77 1011.19 1011.83 1013.10 1014.13 1014.90 1015.88 1016.73 1017.56 1018.32 1019.00 1019.74 1020.41 1021.05 1021.63 1022.46 1023.15 1023.88 1024.60 1025.30 1025.95 1026.68 1027.45 1028.23 1028.87 1029.54 1030.03
1012.68 1013.32 1014.49 1014.56 1014.48 1014.58 1014.47 1014.73 1015.44 1016.22 1016.59 1016.30 1015.20 1009.10 1009.20 1009.32 1009.54 1010.20 1010.74 1011.39 1012.16 1013.18 1014.33 1015.35 1016.33 1017.21 1018.11 1018.80 1019.32 1019.94 1020.72 1021.38 1022.10 1022.85 1023.57 1024.32 1025.02 1025.72 1026.54 1027.33 1028.08 1028.78 1029.23 1029.84
1012.12 1012.87 1014.04 1014.43 1014.71 1014.77 1014.51 1014.47 1014.28 1014.64 1014.80 1013.65 1013.70 1007.52 1009.05 1009.22 1009.29 1009.77 1010.47 1011.06 1012.24 1013.23 1014.26 1015.23 1016.04 1016.68 1017.44 1018.17 1018.88 1019.50 1020.24 1021.05 1021.92 1022.71 1023.41 1024.27 1024.97 1025.59 1026.23 1026.93 1027.72 1028.39 1028.96 1029.65
1010.92 1011.90 1011.96 1011.50 1011.76 1012.55 1013.61 1013.36 1013.46 1013.67 1013.42 1011.31 1009.88 1007.88 1008.60 1008.70 1008.94 1009.40 1010.08 1010.98 1011.87 1012.87 1013.68 1014.53 1015.33 1015.87 1016.68 1017.49 1018.20 1019.06 1019.93 1020.71 1021.65 1022.52 1023.45 1024.08 1024.64 1025.25 1025.76 1026.44 1027.23 1027.90 1028.57 1029.35
1010.63 1011.35 1011.41 1010.34 1011.10 1011.40 1011.24 1011.57 1012.02 1011.90 1009.52 1010.87 1005.89 1008.00 1006.07 1007.56 1008.32 1008.65 1009.52 1010.57 1011.61 1012.38 1013.12 1013.43 1014.14 1014.97 1015.66 1016.62 1017.45 1018.29 1019.26 1020.18 1021.12 1022.09 1022.81 1023.65 1024.26 1025.02 1025.80 1026.41 1027.02 1027.82 1028.54 1029.11
1010.68 1010.24 1011.27 1010.26 1010.38 1010.90 1010.94 1010.47 1009.34 1009.10 1008.85 1009.24 1007.28 1005.92 1006.62 1006.70 1007.07 1007.96 1008.65 1009.77 1010.70 1011.10 1011.36 1011.91 1012.86 1013.69 1014.23 1015.06 1016.30 1017.27 1018.15 1019.10 1020.22 1021.36 1022.20 1023.03 1024.08 1024.84 1025.42 1026.41 1026.93 1027.63 1028.42 1029.02
1010.49 1010.86 1011.20 1009.76 1009.88 1011.05 1010.65 1006.40 1008.38 1008.60 1007.73 1007.50 1007.28 1003.02 1006.24 1006.40 1006.90 1007.13 1007.55 1008.45 1009.11 1009.63 1009.85 1010.66 1011.08 1011.71 1012.66 1013.45 1014.55 1015.96 1017.28 1018.67 1019.71 1020.74 1021.92 1022.75 1023.58 1024.61 1025.22 1026.08 1026.66 1027.26 1027.92 1028.67
1009.74 1010.04 1010.26 1009.37 1010.14 1008.71 1004.98 1005.77 1006.28 1006.77 1006.50 1006.90 1006.20 1004.04 1005.53 1005.71 1005.72 1005.67 1006.69 1007.44 1007.77 1008.06 1008.76 1009.49 1010.25 1011.08 1012.02 1013.16 1014.27 1015.52 1016.83 1018.07 1019.41 1020.50 1021.47 1022.45 1023.25 1024.18 1024.91 1025.58 1026.26 1026.90 1027.42 1028.21
1009.11 1009.56 1009.40 1008.98 1008.02 1007.09 1005.56 1005.16 1005.55 1006.24 1004.85 1005.03 1005.58 1004.76 1004.89 1005.50 1006.42 1005.11 1006.27 1005.93 1006.33 1007.07 1007.31 1007.91 1008.87 1010.07 1011.43 1012.72 1014.02 1015.33 1016.59 1017.59 1018.65 1019.70 1020.62 1021.57 1022.43 1023.45 1024.39 1024.96 1025.69 1026.40 1027.04 1027.91
1008.28 1008.35 1008.66 1008.60 1007.48 1006.48 1004.72 1005.11 1004.93 1006.04 1005.82 1004.40 1005.09 1004.47 1004.77 1006.10 1006.92 1003.71 1005.24 1005.72 1006.11 1006.41 1006.90 1007.73 1008.72 1009.86 1011.05 1012.24 1013.29 1014.71 1015.93 1016.90 1017.68 1018.48 1019.48 1020.58 1021.72 1022.72 1023.51 1024.07 1024.96 1025.77 1026.38 1026.98
1007.93 1007.32 1006.96 1007.13 1006.64 1006.22 1005.64 1006.01 1005.90 1006.68 1005.07 1005.12 1005.26 1005.24 1005.58 1006.15 1005.72 1005.93 1005.39 1005.97 1006.39 1006.79 1007.49 1008.26 1008.97 1009.75 1010.51 1011.89 1013.13 1014.42 1015.31 1015.94 1016.38 1017.79 1019.05 1020.33 1021.16 1021.87 1022.64 1023.73 1024.66 1025.37 1026.14 1026.86
1008.00 1007.11 1006.50 1006.73 1006.27 1005.82 1005.71 1006.73 1006.49 1005.41 1005.58 1005.84 1005.90 1005.98 1005.82 1006.08 1006.39 1006.58 1006.79 1007.04 1007.36 1007.81 1008.40 1009.00 1009.95 1010.97 1011.64 1012.32 1013.48 1014.74 1015.20 1015.83 1016.73 1017.85 1018.86 1019.97 1020.61 1021.38 1022.20 1023.08 1024.13 1024.97 1025.79 1026.68
1007.87 1006.79 1006.77 1006.82 1005.97 1005.44 1005.44 1005.65 1005.48 1005.73 1005.83 1005.92 1006.05 1006.30 1006.32 1006.51 1006.96 1007.35 1007.84 1008.20 1008.41 1008.77 1009.42 1009.94 1010.74 1011.88 1012.57 1013.09 1013.84 1014.95 1015.60 1016.31 1017.09 1018.07 1018.93 1019.85 1020.46 1021.10 1021.87 1022.84 1023.97 1025.06 1025.72 1026.37
1006.74 1006.39 1006.28 1006.82 1006.42 1006.43 1006.38 1006.28 1006.48 1006.60 1006.50 1006.37 1006.57 1006.71 1006.91 1007.17 1007.82 1008.27 1008.69 1009.24 1009.60 1010.04 1010.43 1010.87 1011.68 1012.66 1013.66 1014.31 1014.88 1015.35 1016.27 1016.74 1017.48 1018.46 1019.29 1020.14 1020.68 1021.53 1022.24 1022.82 1023.62 1024.54 1025.28 1025.88
1006.32 1006.12 1006.01 1005.88 1005.97 1006.61 1006.51 1006.52 1006.56 1006.83 1007.09 1007.18 1007.33 1007.23 1007.54 1007.72 1008.24 1008.79 1009.58 1010.13 1010.64 1011.05 1011.51 1012.12 1012.80 1013.75 1014.69 1015.27 1015.84 1016.29 1016.62 1017.06 1017.99 1018.85 1019.76 1020.51 1021.07 1021.82 1022.71 1023.18 1023.60 1024.10 1024.62 1024.97
1006.07 1005.59 1005.66 1005.10 1004.92 1005.26 1005.55 1005.36 1006.38 1006.93 1007.42 1007.82 1007.41 1007.96 1008.30 1008.58 1009.07 1009.54 1010.18 1010.77 1011.38 1012.04 1012.60 1013.29 1014.05 1014.67 1015.60 1015.98 1016.57 1017.08 1017.14 1017.29 1018.31 1019.49 1020.25 1020.86 1021.40 1022.09 1022.77 1023.46 1023.99 1023.93 1024.27 1024.51
Wind_Speed
0 4 8 13 10 5 4 4 4 4 4 6 9 9 11 9 8 10 10 13 14 16 8 8 7 7 7 6 7 7 9 9 9 8 7 4 4 4 5 5 7 6 6 7
4 8 12 5 5 6 4 4 8 7 5 7 6 11 11 6 10 14 18 16 18 9 10 11 9 9 9 9 8 7 9 10 7 6 6 5 4 4 4 4 6 5 7 6
9 6 5 9 5 6 6 8 5 8 2 3 3 7 10 11 8 7 14 17 14 19 18 15 13 13 10 11 9 10 10 10 7 9 9 8 8 5 3 4 4 4 6 7
7 5 5 6 6 8 7 7 6 5 2 6 3 9 6 7 12 9 18 15 17 15 14 16 16 14 14 11 8 8 8 8 10 11 11 14 7 8 2 2 3 4 6 7
11 8 9 7 8 10 8 4 5 3 4 2 3 6 7 4 8 12 19 13 14 16 22 22 21 18 13 10 10 9 9 10 11 10 10 8 8 7 5 4 7 6 5 6
5 1 8 9 4 9 6 6 6 5 3 5 10 9 6 7 14 9 17 12 14 17 19 17 14 13 10 8 8 10 12 10 10 10 10 12 15 13 10 7 7 4 4 4
3 4 2 4 6 3 5 7 3 4 1 10 3 6 14 7 11 15 16 10 11 11 15 16 17 16 14 14 12 10 13 11 10 11 10 11 14 15 15 12 9 10 6 3
12 8 12 7 12 9 8 10 9 9 6 6 0 10 8 14 13 7 9 8 7 9 12 15 17 16 16 15 13 12 13 12 11 11 11 10 12 9 9 8 8 6 5 6
8 8 1 0 4 14 8 9 5 2 2 2 7 9 8 10 10 10 12 4 7 10 13 15 15 15 15 15 15 14 13 12 12 13 11 12 11 10 10 8 6 5 6 6
5 3 1 1 4 3 7 8 3 1 3 7 6 7 10 4 12 13 14 7 10 8 9 11 13 14 13 13 12 10 11 13 13 12 12 11 11 9 10 10 10 10 7 7
6 6 1 3 7 12 5 6 4 5 7 6 3 9 8 13 12 12 12 9 10 12 13 13 12 11 11 11 10 11 10 11 11 12 11 12 11 11 11 10 9 10 8 9
10 4 6 10 4 3 1 4 7 6 7 6 3 18 6 6 6 8 10 9 9 12 13 13 12 12 12 13 13 13 12 12 12 11 11 12 11 11 11 10 9 9 10 8
11 5 2 6 4 3 5 7 15 2 4 11 6 14 2 5 5 6 9 6 6 9 11 11 11 14 14 14 14 13 12 12 10 9 11 10 11 11 11 11 11 10 10 8
12 6 12 19 4 10 8 9 13 19 11 9 23 18 6 6 6 8 7 5 8 10 13 13 13 14 13 13 14 14 12 11 11 11 10 12 12 12 12 12 11 11 10 10
15 15 9 23 8 9 10 13 21 24 33 13 34 20 18 14 12 10 7 6 8 10 12 15 15 14 14 14 15 14 14 13 13 13 12 12 11 10 9 10 10 9 9 9
1 15 16 26 18 9 7 11 26 31 29 27 29 34 7 8 6 6 11 10 11 14 17 17 16 16 18 18 17 16 16 16 15 15 14 11 10 10 11 10 10 10 9 8
19 13 13 23 14 4 6 38 11 16 22 23 25 38 7 15 14 12 12 12 15 15 17 17 20 20 18 20 19 19 16 14 14 13 11 11 12 11 10 10 10 11 11 8
6 19 13 17 6 17 27 15 25 27 22 18 20 28 8 14 19 16 7 10 16 16 13 14 15 15 15 14 15 14 14 14 14 12 12 11 11 11 9 10 11 10 9 11
14 11 7 9 15 10 14 5 9 13 31 29 26 29 26 20 3 19 11 16 15 13 14 14 13 13 14 14 14 14 14 15 15 14 14 13 13 12 12 13 12 9 9 8
21 19 13 4 11 13 9 5 6 7 19 12 20 28 24 4 9 22 6 8 11 9 9 11 11 11 15 15 16 16 15 15 15 15 15 14 14 14 14 14 12 9 9 9
10 16 21 18 13 6 4 5 4 12 9 1 0 2 6 8 9 5 1 3 4 5 8 8 13 15 15 15 15 14 14 16 15 11 11 12 14 14 12 9 7 8 7 5
6 8 12 11 12 19 9 3 12 4 1 4 2 3 5 5 3 2 1 5 7 8 8 7 8 7 6 10 12 10 13 6 8 11 12 12 12 9 9 11 6 6 7 7
6 8 3 5 3 3 5 2 2 2 4 3 2 2 3 3 1 2 4 5 5 7 7 6 10 9 6 7 9 10 6 9 10 10 10 9 7 7 8 9 8 4 6 7
5 5 5 3 4 4 4 1 2 2 1 2 1 3 5 3 5 3 4 4 5 4 5 4 9 8 6 4 5 5 7 7 9 8 7 6 8 6 5 4 5 6 7 7
3 10 8 4 4 1 8 8 5 3 2 2 0 2 4 6 4 5 4 4 5 5 4 4 7 7 7 6 6 3 6 8 7 6 5 4 4 5 5 3 4 4 1 5
5 6 6 5 3 4 3 9 9 8 6 6 6 2 1 3 6 5 6 4 5 6 4 6 5 8 6 6 6 5 4 6 8 6 5 5 5 4 4 5 3 5 6 9
Wind_Direction
249 112 202 205 198 174 162 194 235 257 223 166 225 253 261 201 223 234 225 219 217 217 187 183 183 174 168 171 164 164 150 151 139 132 122 108 102 91 76 71 84 90 92 94
52 228 228 185 204 214 234 247 259 273 242 178 248 246 258 197 224 218 222 223 219 186 178 186 182 179 180 176 180 168 162 161 155 140 115 117 121 82 82 88 73 75 93 93
173 215 157 168 181 189 234 210 227 232 340 262 327 272 245 253 228 241 236 229 217 200 186 182 187 188 181 185 179 172 165 166 136 124 113 103 101 95 87 67 68 48 81 82
226 230 155 169 198 170 239 206 198 209 125 242 152 280 264 241 246 226 244 223 219 192 182 180 184 189 189 187 167 167 161 145 140 144 142 148 144 137 145 115 93 75 65 80
226 182 185 188 192 167 227 167 195 202 190 352 215 286 258 235 258 255 250 229 214 190 182 185 189 186 182 169 166 154 148 146 151 154 156 141 127 111 116 107 105 99 80 79
224 216 167 195 142 180 133 82 49 52 80 259 225 204 197 208 231 249 254 245 203 190 191 187 178 165 165 156 154 158 156 157 158 155 151 148 139 139 140 142 131 118 99 92
140 217 207 152 107 73 118 102 298 319 332 240 284 234 252 254 248 226 251 257 209 188 177 170 166 172 170 170 167 166 165 162 155 154 150 151 150 153 153 152 148 144 137 126
197 252 173 185 198 165 196 163 167 212 215 255 352 239 249 227 258 275 260 272 180 170 179 180 176 173 171 172 171 170 167 161 159 157 156 153 153 154 155 153 150 145 144 146
174 252 155 4 143 158 196 215 170 24 69 1 223 286 290 252 277 276 259 204 176 184 183 179 171 174 172 175 178 173 165 163 165 165 158 161 158 155 156 138 134 140 134 139
213 284 25 232 109 34 161 162 97 31 222 255 268 259 233 234 229 247 266 203 198 176 169 175 177 176 179 177 172 171 170 168 166 163 165 164 160 151 148 150 154 152 146 142
176 185 273 126 214 172 144 191 188 139 158 203 285 254 218 209 209 225 250 231 185 185 181 180 180 179 176 168 167 168 167 161 163 166 162 158 157 154 153 155 153 154 148 150
199 187 189 202 223 244 177 219 162 147 213 231 185 254 184 194 187 206 253 230 194 185 180 181 177 169 170 174 174 176 173 170 172 167 161 164 158 154 153 155 157 158 158 156
166 219 24 330 345 351 211 208 213 76 63 216 185 259 280 230 234 239 250 241 187 169 170 175 173 180 182 182 180 178 176 173 164 159 160 159 159 159 163 161 162 163 156 156
165 170 206 233 190 151 198 198 203 208 232 220 238 259 196 226 225 244 239 219 191 182 180 184 189 189 185 184 180 179 177 169 162 161 164 167 168 173 171 165 166 164 161 161
172 223 214 241 226 190 197 196 205 209 226 206 252 237 246 237 220 234 213 196 185 189 192 197 194 188 182 183 182 179 176 170 169 171 172 179 172 168 162 164 163 156 162 170
241 237 229 255 242 198 230 232 217 212 225 232 252 259 146 224 229 198 210 192 199 204 211 202 194 188 187 183 184 179 178 176 172 179 181 168 169 167 168 169 163 162 169 165
207 217 225 246 234 163 259 235 194 219 224 216 233 246 206 249 234 228 220 202 206 213 214 202 198 194 189 187 178 184 178 166 172 171 171 170 171 176 173 168 168 176 177 166
203 217 213 239 149 223 241 242 220 224 234 226 252 258 216 242 251 251 215 198 216 217 209 200 194 195 190 178 177 167 161 163 168 174 173 170 170 177 172 172 184 178 170 182
205 199 223 226 224 267 281 198 165 185 243 232 236 253 255 254 293 265 207 221 229 212 205 200 188 175 165 165 160 154 158 167 173 180 177 175 173 179 180 184 185 184 175 181
208 204 207 177 228 230 270 181 184 116 251 203 213 240 245 156 249 263 218 192 213 196 169 162 153 147 155 164 158 161 170 173 183 180 178 174 181 187 187 192 187 179 187 194
206 204 211 220 240 247 230 219 142 168 242 310 106 321 133 193 229 305 3 102 151 142 136 128 153 164 167 160 160 172 169 186 184 162 168 182 188 189 189 177 170 174 175 157
215 208 217 228 236 237 155 100 192 203 150 171 215 212 202 238 325 6 40 124 122 115 108 119 117 105 109 137 152 165 183 149 140 153 161 174 177 176 168 168 153 160 165 185
221 195 207 229 255 316 209 27 54 162 153 195 186 235 172 155 118 128 120 96 95 110 113 109 123 121 113 133 148 156 174 142 142 152 166 166 153 157 160 161 158 138 164 189
244 170 181 121 222 251 281 273 243 250 200 116 91 170 172 147 163 117 114 111 100 81 103 90 118 116 106 65 81 106 140 138 143 149 149 150 159 144 134 126 150 169 185 199
183 147 172 253 199 282 256 218 199 172 43 69 299 90 171 144 149 145 129 106 97 93 75 95 123 129 130 124 106 103 134 133 131 118 126 130 123 143 133 109 156 158 149 173
196 175 183 212 186 170 247 195 168 157 166 184 87 68 28 158 158 133 127 122 127 126 97 100 96 118 129 121 109 95 108 124 131 130 144 158 150 141 141 139 89 192 184 206